Погода в Красноглинном

Россия / Новосибирская область     54°58′28″N   82°42′07″E
темп.,
°C
ветер,
м/с
пор.,
м/с
влажн.,
%
обл.,
%
осадки,
мм/ч
давл.,
гПа
погр.,
м
22 января, пт
пт2201:00−16ююз2394100 0.0 101344
04:00−14ююз2397100 0.3 1010155
07:00−14з3696100 1.6 1009324
10:00−17з3895100 0.4 1010260
13:00−18з489383 0.4 1013384
16:00−20з479377 0.0 1016334
19:00−24зюз339583 0.0 101855
22:00−26юз3395100 0.0 102143
23 января, сб
сб2301:00−27юз3495100 0.0 102366
04:00−25ююз469889 0.1 1025240
07:00−24ююз479695 0.3 1027312
10:00−24ююз4897100 0.3 1028336
13:00−22ююз4795100 0.4 1030418
16:00−21юз4794100 0.1 1029457
19:00−21ююз259899 0.3 1030155
22:00−20ю3499100 0.2 1030112
24 января, вс
вс2401:00−19ююз2498100 0.5 1030121
04:00−19зюз2498100 0.3 1030109
07:00−22з3499100 0.6 1031122
10:00−24зсз3598100 0.2 1033190
13:00−25зсз4695100 0.3 1034341
16:00−29з479384 0.0 1036297
19:00−35з349465 0.0 103960
22:00−38з349525 0.0 104245
25 января, пн
пн2501:00−41з239642 0.0 104319
04:00−42з229637 0.0 104518
07:00−44з129742 0.0 104618
10:00−44зюз119652 0.0 104818
13:00−39юз129152 0.0 1048158
16:00−38ююз129152 0.0 1047154
19:00−42ю119543 0.0 104818
22:00−42юв119388 0.0 104818
26 января, вт
вт2601:00−42в119282 0.0 104718
04:00−42св119260 0.0 104718
07:00−42св119130 0.0 104718
10:00−42св12900 0.0 104818
13:00−36ссв22870 0.0 1048181
16:00−33ссв238924 0.0 1047274
19:00−38св239313 0.0 104919
22:00−40св23910 0.0 105018